Regional Weather Roundup
Issued by NWS

Home | Current Version | Previous Version | Text Only | Print | Product List | Glossary On
Versions: 1 2 3 4 5 6 7 8 9 10 11 12 13 14 15 16 17 18 19 20 21 22 23 24 25 26 27 28 29 30 31 32 33 34 35 36 37 38 39 40 41 42 43 44 45 46 47 48 49 50
000
ASUS43 KLSX 182207
RWRMO

WEATHER SUMMARY FOR MISSOURI
NATIONAL WEATHER SERVICE SPRINGFIELD MO
400 PM CST THU DEC 18 2014

NOTE: "FAIR" INDICATES FEW OR NO CLOUDS BELOW 12,000 FEET WITH NO
       SIGNIFICANT WEATHER AND/OR OBSTRUCTIONS TO VISIBILITY.
       CURRENT SKY AND/OR WEATHER CONDITIONS ARE NOT AVAILABLE FOR
       CHILLICOTHE AND FARMINGTON.

MOZ001>031-035>038-043-044-053-054-182300-
...NORTHERN AND WESTERN MISSOURI...

CITY           SKY/WX    TMP DP  RH WIND       PRES   REMARKS
KANSAS CTY INT CLOUDY    32  28  85 E5        30.19S WCI  27
KANSAS C DTWN  CLOUDY    33  29  85 E5        30.21R WCI  29
LEE`S SUMMIT   CLOUDY    32  29  88 NE5       30.20R WCI  27
ST JOSEPH      CLOUDY    32  27  81 E5        30.22S WCI  27
CHILLICOTHE      N/A     32  26  78 NE5       30.24R WCI  27
KIRKSVILLE     CLOUDY    30  27  88 CALM      30.23R

$$
MOZ066>068-077>081-088>096-101>105-182300-
...SOUTHWEST MISSOURI...

CITY           SKY/WX    TMP DP  RH WIND       PRES   REMARKS
SPRINGFIELD    CLOUDY    38  35  89 CALM      30.15R
JOPLIN         CLOUDY    38  36  92 N6        30.17S

$$
MOZ032>034-039>042-045>050-055>058-069>072-182300-
...CENTRAL MISSOURI...

CITY           SKY/WX    TMP DP  RH WIND       PRES   REMARKS
COLUMBIA       CLOUDY    33  30  88 E6        30.20R WCI  28
JEFFERSON CITY CLOUDY    34  31  88 E5        30.22R WCI  30
ROLLA          CLOUDY    33  31  92 E5        30.17R WCI  29
SEDALIA        CLOUDY    34  31  88 E6        30.20R WCI  29
WHITEMAN AFB   CLOUDY    33  31  90 NE5       30.19R WCI  29
WARRENSBURG    CLOUDY    32  32 100 N3        30.20S FOG
OSAGE BEACH    CLOUDY    36  32  87 E3        30.19R

$$
MOZ051-052-059>065-182300-
...EAST CENTRAL MISSOURI...

CITY           SKY/WX    TMP DP  RH WIND       PRES   REMARKS
ST LOUIS INTL  CLOUDY    36  26  67 CALM      30.24R
SPIRIT OF STL  CLOUDY    33  29  85 CALM      30.23R FOG
ST CHARLES     CLOUDY    34  25  69 N5        30.24R WCI  30

$$
MOZ072>076-082>087-097>100-106>115-182300-
...SOUTH CENTRAL AND SOUTHEAST MISSOURI...

CITY           SKY/WX    TMP DP  RH WIND       PRES   REMARKS
CAPE GIRARDEAU CLOUDY    36  32  85 E6        30.23R
FARMINGTON     CLOUDY    34  34 100 N5        30.21S WCI  30
POPLAR BLUFF   CLOUDY    38  32  79 NE6       30.21S
WEST PLAINS    CLOUDY    37  32  82 CALM      30.17S

$$


USA.gov is the U.S. government's official web portal to all federal, state and local government web resources and services.